Time,TemperatureF,DewpointF,PressureIn,WindDirection,WindDirectionDegrees,WindSpeedMPH,WindSpeedGustMPH,Humidity,HourlyPrecipIn,Conditions,Clouds,dailyrainin,SolarRadiationWatts/m^2,SoftwareType,DateUTC
2013-04-07 00:03:00,40.0,13.0,-100.00,South,170,9.0,17.0,33,0.00,,,0.00,0.000000,,2013-04-07 04:03:00,
2013-04-07 00:32:00,40.0,13.0,-100.00,South,187,10.0,18.0,32,0.00,,,0.00,0.000000,,2013-04-07 04:32:00,
2013-04-07 00:43:00,40.0,13.0,-100.00,South,187,10.0,18.0,32,0.00,,,0.00,0.000000,,2013-04-07 04:43:00,
2013-04-07 00:53:00,40.0,13.0,-100.00,South,187,10.0,18.0,32,0.00,,,0.00,0.000000,,2013-04-07 04:53:00,
2013-04-07 01:02:00,40.0,13.0,-100.00,South,187,10.0,18.0,32,0.00,,,0.00,0.000000,,2013-04-07 05:02:00,
2013-04-07 01:34:00,40.0,13.0,-100.00,South,175,12.0,22.0,32,0.00,,,0.00,0.000000,,2013-04-07 05:34:00,
2013-04-07 01:43:00,40.0,13.0,-100.00,South,175,12.0,22.0,32,0.00,,,0.00,0.000000,,2013-04-07 05:43:00,
2013-04-07 01:53:00,40.0,13.0,-100.00,South,175,12.0,22.0,32,0.00,,,0.00,0.000000,,2013-04-07 05:53:00,
2013-04-07 02:02:00,40.0,13.0,-100.00,South,175,12.0,22.0,32,0.00,,,0.00,0.000000,,2013-04-07 06:02:00,
2013-04-07 02:33:00,38.0,16.0,-100.00,SSE,159,11.0,20.0,41,0.00,,,0.00,0.000000,,2013-04-07 06:33:00,
2013-04-07 02:43:00,38.0,16.0,-100.00,SSE,159,11.0,20.0,41,0.00,,,0.00,0.000000,,2013-04-07 06:43:00,
2013-04-07 02:53:00,38.0,16.0,-100.00,SSE,159,11.0,20.0,41,0.00,,,0.00,0.000000,,2013-04-07 06:53:00,
2013-04-07 03:02:00,38.0,16.0,-100.00,SSE,159,11.0,20.0,41,0.00,,,0.00,0.000000,,2013-04-07 07:02:00,
2013-04-07 03:33:00,38.0,20.0,-100.00,South,184,12.0,21.0,48,0.00,,,0.00,0.000000,,2013-04-07 07:33:00,
2013-04-07 03:42:00,38.0,20.0,-100.00,South,184,12.0,21.0,48,0.00,,,0.00,0.000000,,2013-04-07 07:42:00,
2013-04-07 03:52:00,38.0,20.0,-100.00,South,184,12.0,21.0,48,0.00,,,0.00,0.000000,,2013-04-07 07:52:00,
2013-04-07 04:02:00,38.0,20.0,-100.00,South,184,12.0,21.0,48,0.00,,,0.00,0.000000,,2013-04-07 08:02:00,
2013-04-07 04:33:00,37.0,24.0,-100.00,South,173,12.0,21.0,58,0.00,,,0.00,0.000000,,2013-04-07 08:33:00,
2013-04-07 04:43:00,37.0,24.0,-100.00,South,173,12.0,21.0,58,0.00,,,0.00,0.000000,,2013-04-07 08:43:00,
2013-04-07 04:53:00,37.0,24.0,-100.00,South,173,12.0,21.0,58,0.00,,,0.00,0.000000,,2013-04-07 08:53:00,
2013-04-07 05:02:00,37.0,24.0,-100.00,South,173,12.0,21.0,58,0.00,,,0.00,0.000000,,2013-04-07 09:02:00,
2013-04-07 05:34:00,36.0,26.0,-100.00,SSE,168,11.0,21.0,66,0.00,,,0.00,0.000000,,2013-04-07 09:34:00,
2013-04-07 05:54:00,36.0,26.0,-100.00,SSE,168,11.0,21.0,66,0.00,,,0.00,0.000000,,2013-04-07 09:54:00,
2013-04-07 06:04:00,36.0,26.0,-100.00,SSE,168,11.0,21.0,66,0.00,,,0.00,0.000000,,2013-04-07 10:04:00,
2013-04-07 06:34:00,36.0,25.0,-100.00,South,182,14.0,25.0,63,0.00,,,0.00,0.000000,,2013-04-07 10:34:00,
2013-04-07 06:54:00,36.0,25.0,-100.00,South,182,14.0,25.0,63,0.00,,,0.00,0.000000,,2013-04-07 10:54:00,
2013-04-07 07:03:00,36.0,25.0,-100.00,South,182,14.0,25.0,63,0.00,,,0.00,0.000000,,2013-04-07 11:03:00,
2013-04-07 07:33:00,36.0,22.0,-100.00,South,185,15.0,25.0,57,0.00,,,0.00,4.000000,,2013-04-07 11:33:00,
2013-04-07 07:43:00,36.0,22.0,-100.00,South,185,15.0,25.0,57,0.00,,,0.00,4.000000,,2013-04-07 11:43:00,
2013-04-07 07:53:00,36.0,22.0,-100.00,South,185,15.0,25.0,57,0.00,,,0.00,4.000000,,2013-04-07 11:53:00,
2013-04-07 08:03:00,36.0,22.0,-100.00,South,185,15.0,25.0,57,0.00,,,0.00,4.000000,,2013-04-07 12:03:00,
2013-04-07 08:35:00,38.0,22.0,-100.00,South,178,14.0,27.0,51,0.00,,,0.00,106.000000,,2013-04-07 12:35:00,
2013-04-07 08:43:00,38.0,22.0,-100.00,South,178,14.0,27.0,51,0.00,,,0.00,106.000000,,2013-04-07 12:43:00,
2013-04-07 08:54:00,38.0,22.0,-100.00,South,178,14.0,27.0,51,0.00,,,0.00,106.000000,,2013-04-07 12:54:00,
2013-04-07 09:05:00,38.0,22.0,-100.00,South,178,14.0,27.0,51,0.00,,,0.00,106.000000,,2013-04-07 13:05:00,
2013-04-07 09:33:00,40.0,21.0,-100.00,South,190,14.0,26.0,47,0.00,,,0.00,319.000000,,2013-04-07 13:33:00,
2013-04-07 09:43:00,40.0,21.0,-100.00,South,190,14.0,26.0,47,0.00,,,0.00,319.000000,,2013-04-07 13:43:00,
2013-04-07 09:53:00,40.0,21.0,-100.00,South,190,14.0,26.0,47,0.00,,,0.00,319.000000,,2013-04-07 13:53:00,
2013-04-07 10:02:00,40.0,21.0,-100.00,South,190,14.0,26.0,47,0.00,,,0.00,319.000000,,2013-04-07 14:02:00,
2013-04-07 10:33:00,44.0,23.0,-100.00,South,182,15.0,24.0,43,0.00,,,0.00,511.000000,,2013-04-07 14:33:00,
2013-04-07 10:44:00,44.0,23.0,-100.00,South,182,15.0,24.0,43,0.00,,,0.00,511.000000,,2013-04-07 14:44:00,
2013-04-07 10:55:00,44.0,23.0,-100.00,South,182,15.0,24.0,43,0.00,,,0.00,511.000000,,2013-04-07 14:55:00,
2013-04-07 11:03:00,44.0,23.0,-100.00,South,182,15.0,24.0,43,0.00,,,0.00,511.000000,,2013-04-07 15:03:00,
2013-04-07 11:35:00,48.0,25.0,-100.00,SSW,197,15.0,25.0,40,0.00,,,0.00,638.000000,,2013-04-07 15:35:00,
2013-04-07 11:45:00,48.0,25.0,-100.00,SSW,197,15.0,25.0,40,0.00,,,0.00,638.000000,,2013-04-07 15:45:00,
2013-04-07 11:55:00,48.0,25.0,-100.00,SSW,197,15.0,25.0,40,0.00,,,0.00,638.000000,,2013-04-07 15:55:00,
2013-04-07 12:05:00,48.0,25.0,-100.00,SSW,197,15.0,25.0,40,0.00,,,0.00,638.000000,,2013-04-07 16:05:00,
2013-04-07 12:34:00,53.0,27.0,-100.00,South,188,14.0,24.0,37,0.00,,,0.00,749.000000,,2013-04-07 16:34:00,
2013-04-07 12:44:00,53.0,27.0,-100.00,South,188,14.0,24.0,37,0.00,,,0.00,749.000000,,2013-04-07 16:44:00,
2013-04-07 12:54:00,53.0,27.0,-100.00,South,188,14.0,24.0,37,0.00,,,0.00,749.000000,,2013-04-07 16:54:00,
2013-04-07 13:05:00,53.0,27.0,-100.00,South,188,14.0,24.0,37,0.00,,,0.00,749.000000,,2013-04-07 17:05:00,
2013-04-07 13:34:00,55.0,29.0,-100.00,South,187,13.0,24.0,37,0.00,,,0.00,817.000000,,2013-04-07 17:34:00,
2013-04-07 13:44:00,55.0,29.0,-100.00,South,187,13.0,24.0,37,0.00,,,0.00,817.000000,,2013-04-07 17:44:00,
2013-04-07 13:54:00,55.0,29.0,-100.00,South,187,13.0,24.0,37,0.00,,,0.00,817.000000,,2013-04-07 17:54:00,
2013-04-07 14:03:00,55.0,29.0,-100.00,South,187,13.0,24.0,37,0.00,,,0.00,817.000000,,2013-04-07 18:03:00,
2013-04-07 14:33:00,58.0,32.0,-100.00,South,189,13.0,24.0,37,0.00,,,0.00,808.000000,,2013-04-07 18:33:00,
2013-04-07 14:44:00,58.0,32.0,-100.00,South,189,13.0,24.0,37,0.00,,,0.00,808.000000,,2013-04-07 18:44:00,
2013-04-07 14:53:00,58.0,32.0,-100.00,South,189,13.0,24.0,37,0.00,,,0.00,808.000000,,2013-04-07 18:53:00,
2013-04-07 15:03:00,58.0,32.0,-100.00,South,189,13.0,24.0,37,0.00,,,0.00,808.000000,,2013-04-07 19:03:00,
2013-04-07 15:33:00,58.0,32.0,-100.00,SSW,193,15.0,26.0,37,0.00,,,0.00,670.000000,,2013-04-07 19:33:00,
2013-04-07 15:43:00,58.0,32.0,-100.00,SSW,193,15.0,26.0,37,0.00,,,0.00,670.000000,,2013-04-07 19:43:00,
2013-04-07 15:55:00,58.0,32.0,-100.00,SSW,193,15.0,26.0,37,0.00,,,0.00,670.000000,,2013-04-07 19:55:00,
2013-04-07 16:03:00,58.0,32.0,-100.00,SSW,193,15.0,26.0,37,0.00,,,0.00,670.000000,,2013-04-07 20:03:00,
2013-04-07 16:33:00,60.0,34.0,-100.00,SSW,199,12.0,20.0,37,0.00,,,0.00,444.000000,,2013-04-07 20:33:00,
2013-04-07 16:44:00,60.0,34.0,-100.00,SSW,199,12.0,20.0,37,0.00,,,0.00,444.000000,,2013-04-07 20:44:00,
2013-04-07 16:55:00,60.0,34.0,-100.00,SSW,199,12.0,20.0,37,0.00,,,0.00,444.000000,,2013-04-07 20:55:00,
2013-04-07 17:04:00,60.0,34.0,-100.00,SSW,199,12.0,20.0,37,0.00,,,0.00,444.000000,,2013-04-07 21:04:00,
2013-04-07 17:35:00,61.0,34.0,-100.00,SW,218,12.0,21.0,36,0.00,,,0.00,475.000000,,2013-04-07 21:35:00,
2013-04-07 17:45:00,61.0,34.0,-100.00,SW,218,12.0,21.0,36,0.00,,,0.00,475.000000,,2013-04-07 21:45:00,
2013-04-07 17:55:00,61.0,34.0,-100.00,SW,218,12.0,21.0,36,0.00,,,0.00,475.000000,,2013-04-07 21:55:00,
2013-04-07 18:05:00,61.0,34.0,-100.00,SW,218,12.0,21.0,36,0.00,,,0.00,475.000000,,2013-04-07 22:05:00,
2013-04-07 18:34:00,59.0,34.0,-100.00,SSW,205,10.0,24.0,39,0.00,,,0.00,186.000000,,2013-04-07 22:34:00,
2013-04-07 18:44:00,59.0,34.0,-100.00,SSW,205,10.0,24.0,39,0.00,,,0.00,186.000000,,2013-04-07 22:44:00,
2013-04-07 18:54:00,59.0,34.0,-100.00,SSW,205,10.0,24.0,39,0.00,,,0.00,186.000000,,2013-04-07 22:54:00,
2013-04-07 19:04:00,59.0,34.0,-100.00,SSW,205,10.0,24.0,39,0.00,,,0.00,186.000000,,2013-04-07 23:04:00,
2013-04-07 19:33:00,59.0,35.0,-100.00,SSW,193,9.0,16.0,40,0.00,,,0.00,42.000000,,2013-04-07 23:33:00,
2013-04-07 19:43:00,59.0,35.0,-100.00,SSW,193,9.0,16.0,40,0.00,,,0.00,42.000000,,2013-04-07 23:43:00,
2013-04-07 19:53:00,59.0,35.0,-100.00,SSW,193,9.0,16.0,40,0.00,,,0.00,42.000000,,2013-04-07 23:53:00,
2013-04-07 20:03:00,59.0,35.0,-100.00,SSW,193,9.0,16.0,40,0.00,,,0.00,42.000000,,2013-04-08 00:03:00,
2013-04-07 20:33:00,58.0,35.0,-100.00,South,174,8.0,16.0,42,0.00,,,0.00,6.000000,,2013-04-08 00:33:00,
2013-04-07 20:43:00,58.0,35.0,-100.00,South,174,8.0,16.0,42,0.00,,,0.00,6.000000,,2013-04-08 00:43:00,
2013-04-07 20:53:00,58.0,35.0,-100.00,South,174,8.0,16.0,42,0.00,,,0.00,6.000000,,2013-04-08 00:53:00,
2013-04-07 21:03:00,58.0,35.0,-100.00,South,174,8.0,16.0,42,0.00,,,0.00,6.000000,,2013-04-08 01:03:00,
2013-04-07 21:34:00,54.0,38.0,-100.00,South,174,7.0,13.0,54,0.00,,,0.00,0.000000,,2013-04-08 01:34:00,
2013-04-07 21:45:00,54.0,38.0,-100.00,South,174,7.0,13.0,54,0.00,,,0.00,0.000000,,2013-04-08 01:45:00,
2013-04-07 21:55:00,54.0,38.0,-100.00,South,174,7.0,13.0,54,0.00,,,0.00,0.000000,,2013-04-08 01:55:00,
2013-04-07 22:03:00,54.0,38.0,-100.00,South,174,7.0,13.0,54,0.00,,,0.00,0.000000,,2013-04-08 02:03:00,
2013-04-07 22:08:00,54.0,39.0,-100.00,SSE,157,6.0,13.0,56,0.00,,,0.00,0.000000,,2013-04-08 02:08:00,
2013-04-07 22:33:00,54.0,39.0,-100.00,SSE,157,6.0,13.0,56,0.00,,,0.00,0.000000,,2013-04-08 02:33:00,
2013-04-07 22:49:00,54.0,39.0,-100.00,SSE,157,6.0,13.0,56,0.00,,,0.00,0.000000,,2013-04-08 02:49:00,
2013-04-07 22:55:00,54.0,39.0,-100.00,SSE,157,6.0,13.0,56,0.00,,,0.00,0.000000,,2013-04-08 02:55:00,
2013-04-07 23:37:00,56.0,40.0,-100.00,SW,218,10.0,15.0,54,0.00,,,0.00,0.000000,,2013-04-08 03:37:00,
2013-04-07 23:48:00,56.0,40.0,-100.00,SW,218,10.0,15.0,54,0.00,,,0.00,0.000000,,2013-04-08 03:48:00,
2013-04-07 23:58:00,56.0,40.0,-100.00,SW,218,10.0,15.0,54,0.00,,,0.00,0.000000,,2013-04-08 03:58:00,